GW3808 Weather Reports


time (UTC)temp
F
wind
direction
speed
knots
gust
knots
rain 1hr
in
rain 24hr
in
rain mn
in
humidity
%
barometer
mb
20260509064442 73 341 0.0 0.0 0.00 0.00 0.00 98 1007.8
20260509063442 73 277 0.0 0.0 0.00 0.00 0.00 97 1007.8
20260509062442 73 306 0.0 0.0 0.00 0.00 0.00 97 1007.8
20260509061442 73 329 0.0 0.0 0.00 0.00 0.00 97 1007.8
20260509060942 73 319 0.0 0.0 0.00 0.00 0.00 97 1008.1
20260509054942 73 300 0.0 0.0 0.00 0.00 0.00 97 1008.1
20260509053942 72 319 0.0 0.0 0.00 0.00 0.00 97 1008.1
20260509053443 72 316 0.0 0.0 0.00 0.00 0.00 97 1008.8
20260509052442 72 332 0.0 0.0 0.00 0.00 0.00 97 1008.8
20260509051942 72 1 0.0 0.0 0.00 0.00 0.00 97 1008.8
20260509045942 72 312 0.0 0.0 0.00 0.00 0.00 97 1008.5
20260509045442 72 311 0.0 0.0 0.00 0.00 0.00 97 1008.1
20260509044942 72 312 0.0 0.0 0.00 0.00 0.00 97 1008.1
20260509043942 72 345 0.0 0.0 0.00 0.00 0.00 96 1008.1
20260509042942 72 306 0.0 0.0 0.00 0.00 0.00 96 1008.1
20260509042442 72 322 0.0 0.0 0.00 0.00 0.00 96 1007.8
20260509041442 72 311 0.0 0.0 0.00 0.00 0.00 95 1007.8
20260509040942 72 324 0.0 0.0 0.00 0.00 0.00 95 1007.8
20260509035942 73 358 0.0 0.0 0.00 0.00 0.00 94 1007.8
20260509034942 73 263 0.0 0.0 0.00 0.00 0.00 94 1007.5
20260509034442 73 330 0.0 0.0 0.00 0.00 0.00 94 1007.5
20260509033443 73 336 0.0 0.0 0.00 0.00 0.00 94 1007.5
20260509031443 74 335 0.0 0.0 0.00 0.00 0.00 93 1007.8
20260509030442 74 322 0.0 0.0 0.00 0.00 0.00 92 1007.8
20260509025942 74 331 0.0 0.0 0.00 0.00 0.00 92 1007.8
20260509024942 74 330 0.0 0.0 0.00 0.00 0.00 91 1007.5
20260509022942 75 314 0.0 0.0 0.00 0.00 0.00 90 1007.1
20260509021942 75 317 0.0 0.0 0.00 0.00 0.00 90 1007.1
20260509020942 75 324 0.0 0.0 0.00 0.00 0.00 90 1007.1
20260509015942 75 318 0.0 0.0 0.00 0.00 0.00 89 1006.8
20260509014942 75 335 0.0 0.0 0.00 0.00 0.00 89 1006.4
20260509014442 75 346 0.0 0.0 0.00 0.00 0.00 88 1006.8
20260509012442 75 322 0.0 0.0 0.00 0.00 0.00 87 1006.8
20260509011942 75 336 0.0 0.0 0.00 0.00 0.00 87 1006.4
20260509011442 76 315 0.0 0.0 0.00 0.00 0.00 87 1006.4
20260509010942 76 325 0.0 0.0 0.00 0.00 0.00 87 1006.4
20260509005943 76 323 0.0 0.0 0.00 0.00 0.00 86 1006.4
20260509005442 76 236 0.0 0.0 0.00 0.00 0.00 86 1006.4
20260509004442 76 333 0.0 0.0 0.00 0.00 0.00 85 1006.4
20260509003442 77 290 0.0 0.0 0.00 0.00 0.00 84 1006.4
20260509002442 77 336 0.0 0.0 0.00 0.00 0.00 84 1006.4
20260509001442 78 13 0.0 0.0 0.00 0.00 0.00 82 1006.4
20260509000942 78 316 0.0 0.0 0.00 0.00 0.00 82 1006.1
20260508235442 79 359 0.0 0.0 0.00 0.00 0.00 81 1006.1
20260508233942 80 325 0.0 0.0 0.00 0.00 0.00 79 1006.1
20260508232942 80 169 0.0 0.0 0.00 0.00 0.00 78 1006.1
20260508230942 80 315 0.0 0.0 0.00 0.00 0.00 77 1006.1
20260508230442 80 56 0.0 0.0 0.00 0.00 0.00 78 1006.1
20260508225942 80 329 0.0 0.0 0.00 0.00 0.00 78 1006.4
20260508225442 80 331 0.0 0.0 0.00 0.00 0.00 78 1006.4
20260508224442 79 336 0.0 0.0 0.00 0.00 0.00 80 1006.4
20260508223942 78 304 0.0 0.0 0.00 0.00 0.00 80 1006.8
20260508222942 78 341 0.9 0.9 0.00 0.00 0.00 82 1006.8
20260508221942 77 301 0.9 0.9 0.00 0.00 0.00 82 1006.8
20260508221442 78 317 0.9 0.9 0.00 0.00 0.00 80 1006.8
20260508220442 78 296 0.0 0.0 0.00 0.00 0.00 80 1007.1
20260508215443 78 341 0.0 0.0 0.00 0.00 0.00 80 1007.1
20260508214942 78 260 0.0 0.0 0.00 0.00 0.00 80 1007.1
20260508213942 77 302 0.9 0.9 0.00 0.00 0.00 81 1006.8
20260508212942 77 323 0.0 0.0 0.00 0.00 0.00 80 1007.1
20260508211942 78 357 0.0 0.0 0.00 0.00 0.00 78 1007.1
20260508211442 78 58 0.0 0.0 0.00 0.00 0.00 78 1007.1
20260508210942 78 8 0.0 0.0 0.00 0.00 0.00 79 1007.5
20260508205943 78 316 0.0 0.0 0.00 0.00 0.00 77 1007.5
20260508204942 78 18 0.0 0.0 0.00 0.00 0.00 76 1007.5
20260508204442 78 51 0.0 0.0 0.00 0.00 0.00 76 1007.8
20260508203942 78 25 0.0 0.0 0.00 0.00 0.00 75 1007.5
20260508203442 78 335 0.0 0.0 0.00 0.00 0.00 77 1007.8
20260508202442 78 353 0.0 0.0 0.00 0.00 0.00 75 1007.8
20260508201942 78 7 0.0 0.0 0.00 0.00 0.00 75 1007.8
20260508200942 78 308 0.0 0.0 0.00 0.00 0.00 73 1007.8
20260508194442 75 17 0.0 0.0 0.00 0.00 0.00 78 1008.1
20260508193442 77 173 0.9 0.9 0.00 0.00 0.00 74 1008.1
20260508192942 77 4 0.9 0.9 0.00 0.00 0.00 73 1008.5
20260508191442 76 248 0.0 0.0 0.00 0.00 0.00 75 1008.1
20260508190942 76 294 0.0 0.0 0.00 0.00 0.00 75 1008.5
20260508185942 76 213 0.0 0.0 0.00 0.00 0.00 74 1008.8
20260508185442 76 318 0.0 0.0 0.00 0.00 0.00 74 1008.8
20260508184442 75 325 0.0 0.0 0.00 0.00 0.00 75 1008.8
20260508183942 74 357 0.0 0.0 0.00 0.00 0.00 75 1008.8
20260508183442 74 313 0.0 0.0 0.00 0.00 0.00 75 1008.8
20260508182942 74 5 0.0 0.0 0.00 0.00 0.00 76 1009.1
20260508182442 73 321 0.0 0.0 0.00 0.00 0.00 76 1009.1
20260508181942 73 329 0.0 0.0 0.00 0.00 0.00 77 1009.5
20260508181442 72 290 0.0 0.0 0.00 0.00 0.00 77 1009.5
20260508180442 72 141 0.0 0.0 0.00 0.00 0.00 77 1009.5
20260508174942 73 344 0.0 0.0 0.00 0.00 0.00 75 1009.8
20260508173442 72 327 0.0 0.0 0.00 0.00 0.00 76 1009.8
20260508172942 72 244 0.0 0.0 0.00 0.00 0.00 76 1009.5
20260508172442 72 352 0.0 0.0 0.00 0.00 0.00 75 1009.8
20260508171942 72 312 0.0 0.0 0.00 0.00 0.00 75 1009.8
20260508170942 72 197 0.0 0.0 0.00 0.00 0.00 76 1009.8
20260508170442 71 1 0.0 0.0 0.00 0.00 0.00 75 1009.8
20260508165942 71 356 0.0 0.0 0.00 0.00 0.00 76 1010.2
20260508164942 70 298 0.0 0.0 0.00 0.00 0.00 77 1010.2
20260508162942 69 213 0.0 0.0 0.00 0.00 0.00 78 1009.8
20260508160942 69 236 0.0 0.0 0.00 0.00 0.00 78 1010.5
20260508155942 69 303 0.0 0.0 0.00 0.00 0.00 79 1010.5
20260508154942 68 337 0.0 0.0 0.00 0.00 0.00 80 1010.8
20260508154442 67 204 0.0 0.0 0.00 0.00 0.00 80 1010.8
20260508152942 68 335 0.0 0.0 0.00 0.00 0.00 79 1010.8
20260508151942 68 309 0.0 0.0 0.00 0.00 0.00 80 1010.8
20260508151442 67 174 0.0 0.0 0.00 0.00 0.00 82 1010.8
20260508150942 66 353 0.0 0.0 0.00 0.00 0.00 83 1010.8
20260508145942 64 221 0.0 0.0 0.00 0.00 0.00 86 1011.2
20260508145442 64 108 0.0 0.0 0.00 0.00 0.00 85 1011.2
20260508144442 64 337 0.0 0.0 0.00 0.00 0.00 86 1011.2
20260508142942 64 63 0.0 0.0 0.00 0.00 0.00 86 1011.2
20260508141942 63 15 0.0 0.0 0.00 0.00 0.00 86 1011.2
20260508141442 63 4 0.0 0.0 0.00 0.00 0.00 86 1011.2
20260508140942 63 86 0.0 0.0 0.00 0.00 0.00 86 1011.2
20260508135942 63 310 0.0 0.0 0.00 0.00 0.00 87 1011.2
20260508134942 63 99 0.0 0.0 0.00 0.00 0.00 88 1011.2
20260508134442 62 321 0.0 0.0 0.00 0.00 0.00 88 1010.8
20260508133942 62 339 0.0 0.0 0.00 0.00 0.00 89 1011.2
20260508133442 62 167 0.0 0.0 0.00 0.00 0.00 89 1011.2
20260508132442 62 79 0.0 0.0 0.00 0.00 0.00 89 1011.2
20260508131942 62 343 0.0 0.0 0.00 0.00 0.00 90 1011.2
20260508130952 62 260 0.0 0.0 0.00 0.00 0.00 90 1011.2
20260508130442 62 58 0.0 0.0 0.00 0.00 0.00 89 1011.2
20260508125442 62 24 0.0 0.0 0.00 0.00 0.00 89 1010.8
20260508124942 62 306 0.0 0.0 0.00 0.00 0.00 89 1011.2
20260508123442 62 54 0.0 0.0 0.00 0.00 0.00 87 1011.2
20260508122942 62 168 0.0 0.0 0.00 0.00 0.00 87 1011.2
20260508122442 62 303 0.0 0.0 0.00 0.00 0.00 87 1011.5
20260508121942 62 26 0.0 0.0 0.00 0.00 0.00 87 1011.2
20260508120442 62 282 0.9 0.9 0.00 0.00 0.00 86 1010.8
20260508114442 62 346 0.0 0.0 0.00 0.00 0.00 87 1010.8
20260508113442 62 274 0.0 0.0 0.00 0.00 0.00 86 1010.8
20260508112942 62 114 0.0 0.0 0.00 0.00 0.00 85 1010.8
20260508112442 62 9 0.0 0.0 0.00 0.00 0.00 85 1010.8
20260508110442 62 11 0.0 0.0 0.00 0.00 0.00 84 1012.2
20260508105442 62 2 0.0 0.0 0.00 0.00 0.00 84 1011.9
20260508104442 62 263 0.0 0.0 0.00 0.00 0.00 84 1011.5
20260508103442 62 57 0.9 0.9 0.00 0.00 0.00 84 1011.2
20260508101442 62 187 0.0 0.0 0.00 0.00 0.00 85 1010.8
20260508100942 62 347 0.0 0.0 0.00 0.00 0.00 85 1010.8
20260508100442 62 311 0.0 0.0 0.00 0.00 0.00 84 1010.8
20260508095442 63 13 0.0 0.0 0.00 0.00 0.00 83 1010.8
20260508094942 63 35 0.0 0.0 0.00 0.00 0.00 82 1010.5
20260508093942 63 353 0.0 0.0 0.00 0.00 0.00 81 1011.5
20260508092442 63 153 0.0 0.0 0.00 0.00 0.00 80 1011.2
20260508091942 63 331 0.0 0.0 0.00 0.00 0.00 80 1011.5
20260508091442 63 11 0.0 0.0 0.00 0.00 0.00 80 1011.9
20260508090442 63 293 0.0 0.0 0.00 0.00 0.00 80 1011.9
20260508085942 63 10 0.0 0.0 0.00 0.00 0.00 80 1011.9
20260508084942 63 83 0.0 0.0 0.00 0.00 0.00 80 1011.2
20260508083942 63 53 0.0 0.0 0.00 0.00 0.00 80 1011.2
20260508082942 63 357 0.0 0.0 0.00 0.00 0.00 80 1011.2
20260508081942 63 341 0.0 0.0 0.00 0.00 0.00 79 1010.8
20260508080942 63 32 0.0 0.0 0.00 0.00 0.00 79 1011.9
20260508075942 63 320 0.0 0.0 0.00 0.00 0.00 78 1011.5
20260508074942 63 195 0.0 0.0 0.00 0.00 0.00 78 1011.9
20260508074442 63 311 0.0 0.0 0.00 0.00 0.00 78 1011.9
20260508073442 63 45 0.0 0.0 0.00 0.00 0.00 78 1012.2
20260508072942 63 21 0.0 0.0 0.00 0.00 0.00 78 1012.2
20260508071942 63 26 0.0 0.0 0.00 0.00 0.00 78 1011.9
20260508070942 63 45 0.9 0.9 0.00 0.00 0.00 77 1012.2
20260508065942 63 13 0.9 0.9 0.00 0.00 0.00 77 1012.2
20260508064942 63 157 0.9 0.9 0.00 0.00 0.00 78 1011.9